Time,TemperatureF,DewpointF,PressureIn,WindDirection,WindDirectionDegrees,WindSpeedMPH,WindSpeedGustMPH,Humidity,HourlyPrecipIn,Conditions,Clouds,dailyrainin,SoftwareType,DateUTC
2013-03-05 00:01:00,3.0,-5.0,-100.00,West,270,7.0,10.0,70,-99.99,,,-99.99,,2013-03-05 07:01:00,
2013-03-05 00:11:00,3.0,-5.0,-100.00,West,270,7.0,10.0,70,-99.99,,,-99.99,,2013-03-05 07:11:00,
2013-03-05 00:21:00,3.0,-4.0,-100.00,WNW,288,8.0,11.0,71,-99.99,,,-99.99,,2013-03-05 07:21:00,
2013-03-05 00:31:00,3.0,-5.0,-100.00,WNW,286,7.0,10.0,69,-99.99,,,-99.99,,2013-03-05 07:31:00,
2013-03-05 00:41:00,3.0,-5.0,-100.00,WNW,286,7.0,10.0,69,-99.99,,,-99.99,,2013-03-05 07:41:00,
2013-03-05 00:52:00,3.0,-5.0,-100.00,SW,214,2.0,8.0,68,-99.99,,,-99.99,,2013-03-05 07:52:00,
2013-03-05 01:02:00,2.0,-6.0,-100.00,South,183,2.0,4.0,70,-99.99,,,-99.99,,2013-03-05 08:02:00,
2013-03-05 01:11:00,2.0,-6.0,-100.00,South,183,2.0,4.0,70,-99.99,,,-99.99,,2013-03-05 08:11:00,
2013-03-05 01:21:00,2.0,-6.0,-100.00,SW,223,2.0,5.0,67,-99.99,,,-99.99,,2013-03-05 08:21:00,
2013-03-05 01:31:00,2.0,-6.0,-100.00,SW,223,2.0,5.0,67,-99.99,,,-99.99,,2013-03-05 08:31:00,
2013-03-05 01:41:00,2.0,-6.0,-100.00,SW,223,2.0,5.0,67,-99.99,,,-99.99,,2013-03-05 08:41:00,
2013-03-05 01:52:00,2.0,-6.0,-100.00,SW,216,5.0,8.0,70,-99.99,,,-99.99,,2013-03-05 08:52:00,
2013-03-05 02:01:00,3.0,-4.0,-100.00,SW,223,5.0,8.0,73,-99.99,,,-99.99,,2013-03-05 09:01:00,
2013-03-05 02:11:00,3.0,-5.0,-100.00,West,267,6.0,11.0,69,-99.99,,,-99.99,,2013-03-05 09:11:00,
2013-03-05 02:21:00,3.0,-5.0,-100.00,West,267,6.0,11.0,69,-99.99,,,-99.99,,2013-03-05 09:21:00,
2013-03-05 02:31:00,2.0,-6.0,-100.00,West,263,6.0,12.0,68,-99.99,,,-99.99,,2013-03-05 09:31:00,
2013-03-05 02:42:00,2.0,-6.0,-100.00,West,263,6.0,12.0,68,-99.99,,,-99.99,,2013-03-05 09:42:00,
2013-03-05 02:52:00,3.0,-5.0,-100.00,SW,233,4.0,11.0,67,-99.99,,,-99.99,,2013-03-05 09:52:00,
2013-03-05 03:01:00,2.0,-7.0,-100.00,WSW,254,6.0,12.0,65,-99.99,,,-99.99,,2013-03-05 10:01:00,
2013-03-05 03:11:00,2.0,-7.0,-100.00,WSW,254,6.0,12.0,65,-99.99,,,-99.99,,2013-03-05 10:11:00,
2013-03-05 03:21:00,2.0,-7.0,-100.00,SW,233,4.0,8.0,64,-99.99,,,-99.99,,2013-03-05 10:21:00,
2013-03-05 03:32:00,2.0,-8.0,-100.00,South,178,2.0,5.0,63,-99.99,,,-99.99,,2013-03-05 10:32:00,
2013-03-05 03:42:00,2.0,-8.0,-100.00,South,178,2.0,5.0,63,-99.99,,,-99.99,,2013-03-05 10:42:00,
2013-03-05 03:52:00,2.0,-8.0,-100.00,SSW,195,2.0,4.0,61,-99.99,,,-99.99,,2013-03-05 10:52:00,
2013-03-05 04:01:00,2.0,-9.0,-100.00,SSW,195,3.0,6.0,59,-99.99,,,-99.99,,2013-03-05 11:01:00,
2013-03-05 04:11:00,2.0,-9.0,-100.00,SSW,195,3.0,6.0,59,-99.99,,,-99.99,,2013-03-05 11:11:00,
2013-03-05 04:22:00,2.0,-9.0,-100.00,SSW,207,3.0,6.0,59,-99.99,,,-99.99,,2013-03-05 11:22:00,
2013-03-05 04:32:00,2.0,-8.0,-100.00,West,277,3.0,7.0,62,-99.99,,,-99.99,,2013-03-05 11:32:00,
2013-03-05 04:42:00,2.0,-8.0,-100.00,West,277,3.0,7.0,62,-99.99,,,-99.99,,2013-03-05 11:42:00,
2013-03-05 04:52:00,2.0,-8.0,-100.00,West,274,2.0,6.0,62,-99.99,,,-99.99,,2013-03-05 11:52:00,
2013-03-05 05:02:00,2.0,-8.0,-100.00,SSW,213,2.0,7.0,62,-99.99,,,-99.99,,2013-03-05 12:02:00,
2013-03-05 05:11:00,2.0,-8.0,-100.00,SSW,213,2.0,7.0,62,-99.99,,,-99.99,,2013-03-05 12:11:00,
2013-03-05 05:22:00,2.0,-7.0,-100.00,WSW,240,5.0,12.0,64,-99.99,,,-99.99,,2013-03-05 12:22:00,
2013-03-05 05:32:00,2.0,-7.0,-100.00,SW,225,8.0,14.0,64,-99.99,,,-99.99,,2013-03-05 12:32:00,
2013-03-05 05:42:00,2.0,-7.0,-100.00,SW,225,8.0,14.0,64,-99.99,,,-99.99,,2013-03-05 12:42:00,
2013-03-05 05:52:00,3.0,-8.0,-100.00,WSW,248,8.0,17.0,60,-99.99,,,-99.99,,2013-03-05 12:52:00,
2013-03-05 06:01:00,3.0,-8.0,-100.00,SSW,204,6.0,11.0,60,-99.99,,,-99.99,,2013-03-05 13:01:00,
2013-03-05 06:11:00,3.0,-8.0,-100.00,SSW,204,6.0,11.0,60,-99.99,,,-99.99,,2013-03-05 13:11:00,
2013-03-05 06:21:00,3.0,-8.0,-100.00,SSW,194,7.0,11.0,59,-99.99,,,-99.99,,2013-03-05 13:21:00,
2013-03-05 06:31:00,3.0,-8.0,-100.00,SSW,202,7.0,12.0,58,-99.99,,,-99.99,,2013-03-05 13:31:00,
2013-03-05 06:42:00,3.0,-8.0,-100.00,SSW,202,7.0,12.0,58,-99.99,,,-99.99,,2013-03-05 13:42:00,
2013-03-05 06:52:00,3.0,-8.0,-100.00,South,191,7.0,11.0,59,-99.99,,,-99.99,,2013-03-05 13:52:00,
2013-03-05 07:02:00,3.0,-8.0,-100.00,South,190,7.0,12.0,58,-99.99,,,-99.99,,2013-03-05 14:02:00,
2013-03-05 07:11:00,3.0,-8.0,-100.00,South,190,7.0,12.0,58,-99.99,,,-99.99,,2013-03-05 14:11:00,
2013-03-05 07:21:00,3.0,-8.0,-100.00,South,191,8.0,12.0,58,-99.99,,,-99.99,,2013-03-05 14:21:00,
2013-03-05 07:31:00,3.0,-9.0,-100.00,South,191,6.0,9.0,56,-99.99,,,-99.99,,2013-03-05 14:31:00,
2013-03-05 07:42:00,3.0,-9.0,-100.00,South,191,6.0,9.0,56,-99.99,,,-99.99,,2013-03-05 14:42:00,
2013-03-05 07:52:00,4.0,-9.0,-100.00,SSW,198,3.0,6.0,54,-99.99,,,-99.99,,2013-03-05 14:52:00,
2013-03-05 08:01:00,5.0,-9.0,-100.00,South,175,5.0,7.0,51,-99.99,,,-99.99,,2013-03-05 15:01:00,
2013-03-05 08:11:00,5.0,-9.0,-100.00,South,175,5.0,7.0,51,-99.99,,,-99.99,,2013-03-05 15:11:00,
2013-03-05 08:21:00,6.0,-9.0,-100.00,South,187,6.0,9.0,49,-99.99,,,-99.99,,2013-03-05 15:21:00,
2013-03-05 08:32:00,7.0,-9.0,-100.00,SSW,192,5.0,7.0,48,-99.99,,,-99.99,,2013-03-05 15:32:00,
2013-03-05 08:42:00,7.0,-9.0,-100.00,SSW,192,5.0,7.0,48,-99.99,,,-99.99,,2013-03-05 15:42:00,
2013-03-05 08:52:00,8.0,-8.0,-100.00,WSW,251,3.0,7.0,48,-99.99,,,-99.99,,2013-03-05 15:52:00,
2013-03-05 09:01:00,11.0,-7.0,-100.00,South,188,3.0,6.0,43,-99.99,,,-99.99,,2013-03-05 16:01:00,
2013-03-05 09:11:00,11.0,-7.0,-100.00,South,188,3.0,6.0,43,-99.99,,,-99.99,,2013-03-05 16:11:00,
2013-03-05 09:21:00,10.0,-7.0,-100.00,SW,222,4.0,11.0,45,-99.99,,,-99.99,,2013-03-05 16:21:00,
2013-03-05 09:32:00,10.0,-6.0,-100.00,WNW,282,6.0,14.0,48,-99.99,,,-99.99,,2013-03-05 16:32:00,
2013-03-05 09:41:00,10.0,-6.0,-100.00,WNW,282,6.0,14.0,48,-99.99,,,-99.99,,2013-03-05 16:41:00,
2013-03-05 09:52:00,11.0,-6.0,-100.00,WSW,253,3.0,9.0,45,-99.99,,,-99.99,,2013-03-05 16:52:00,
2013-03-05 10:01:00,12.0,-6.0,-100.00,SSW,209,3.0,6.0,43,-99.99,,,-99.99,,2013-03-05 17:01:00,
2013-03-05 10:11:00,12.0,-6.0,-100.00,SSW,209,3.0,6.0,43,-99.99,,,-99.99,,2013-03-05 17:11:00,
2013-03-05 10:21:00,12.0,-7.0,-100.00,South,186,4.0,6.0,41,-99.99,,,-99.99,,2013-03-05 17:21:00,
2013-03-05 10:32:00,15.0,-7.0,-100.00,South,182,4.0,7.0,37,-99.99,,,-99.99,,2013-03-05 17:32:00,
2013-03-05 10:41:00,15.0,-7.0,-100.00,South,182,4.0,7.0,37,-99.99,,,-99.99,,2013-03-05 17:41:00,
2013-03-05 10:52:00,16.0,-7.0,-100.00,SSW,192,3.0,6.0,35,-99.99,,,-99.99,,2013-03-05 17:52:00,
2013-03-05 11:01:00,17.0,-6.0,-100.00,WSW,237,3.0,10.0,35,-99.99,,,-99.99,,2013-03-05 18:01:00,
2013-03-05 11:11:00,17.0,-6.0,-100.00,WSW,237,3.0,10.0,35,-99.99,,,-99.99,,2013-03-05 18:11:00,
2013-03-05 11:21:00,18.0,-4.0,-100.00,South,190,2.0,5.0,36,-99.99,,,-99.99,,2013-03-05 18:21:00,
2013-03-05 11:32:00,19.0,-4.0,-100.00,West,279,2.0,9.0,35,-99.99,,,-99.99,,2013-03-05 18:32:00,
2013-03-05 11:41:00,19.0,-4.0,-100.00,West,279,2.0,9.0,35,-99.99,,,-99.99,,2013-03-05 18:41:00,
2013-03-05 11:53:00,19.0,-4.0,-100.00,NW,313,4.0,11.0,36,-99.99,,,-99.99,,2013-03-05 18:53:00,
2013-03-05 12:01:00,18.0,-1.0,-100.00,West,273,10.0,19.0,43,-99.99,,,-99.99,,2013-03-05 19:01:00,
2013-03-05 12:11:00,18.0,-1.0,-100.00,West,273,10.0,19.0,43,-99.99,,,-99.99,,2013-03-05 19:11:00,
2013-03-05 12:21:00,22.0,1.0,-100.00,WNW,283,10.0,19.0,39,-99.99,,,-99.99,,2013-03-05 19:21:00,
2013-03-05 12:31:00,23.0,3.0,-100.00,West,279,10.0,20.0,41,-99.99,,,-99.99,,2013-03-05 19:31:00,
2013-03-05 12:41:00,23.0,3.0,-100.00,West,279,10.0,20.0,41,-99.99,,,-99.99,,2013-03-05 19:41:00,
2013-03-05 12:52:00,25.0,4.0,-100.00,West,274,10.0,25.0,40,-99.99,,,-99.99,,2013-03-05 19:52:00,
2013-03-05 13:01:00,22.0,1.0,-100.00,WSW,256,7.0,18.0,40,-99.99,,,-99.99,,2013-03-05 20:01:00,
2013-03-05 13:11:00,22.0,1.0,-100.00,WSW,256,7.0,18.0,40,-99.99,,,-99.99,,2013-03-05 20:11:00,
2013-03-05 13:21:00,24.0,7.0,-100.00,WNW,283,9.0,23.0,47,-99.99,,,-99.99,,2013-03-05 20:21:00,
2013-03-05 13:32:00,28.0,7.0,-100.00,West,267,7.0,18.0,41,-99.99,,,-99.99,,2013-03-05 20:32:00,
2013-03-05 13:41:00,28.0,7.0,-100.00,West,267,7.0,18.0,41,-99.99,,,-99.99,,2013-03-05 20:41:00,
2013-03-05 13:52:00,23.0,5.0,-100.00,WSW,258,5.0,11.0,45,-99.99,,,-99.99,,2013-03-05 20:52:00,
2013-03-05 14:01:00,24.0,6.0,-100.00,WNW,292,5.0,11.0,46,-99.99,,,-99.99,,2013-03-05 21:01:00,
2013-03-05 14:11:00,24.0,6.0,-100.00,WNW,292,5.0,11.0,46,-99.99,,,-99.99,,2013-03-05 21:11:00,
2013-03-05 14:21:00,25.0,8.0,-100.00,SW,236,6.0,18.0,47,-99.99,,,-99.99,,2013-03-05 21:21:00,
2013-03-05 14:31:00,24.0,6.0,-100.00,SSW,193,4.0,12.0,46,-99.99,,,-99.99,,2013-03-05 21:31:00,
2013-03-05 14:41:00,24.0,6.0,-100.00,SSW,193,4.0,12.0,46,-99.99,,,-99.99,,2013-03-05 21:41:00,
2013-03-05 14:52:00,24.0,7.0,-100.00,SSW,199,5.0,13.0,48,-99.99,,,-99.99,,2013-03-05 21:52:00,
2013-03-05 15:01:00,24.0,8.0,-100.00,West,261,5.0,15.0,49,-99.99,,,-99.99,,2013-03-05 22:01:00,
2013-03-05 15:11:00,24.0,8.0,-100.00,West,261,5.0,15.0,49,-99.99,,,-99.99,,2013-03-05 22:11:00,
2013-03-05 15:21:00,23.0,7.0,-100.00,SW,223,4.0,10.0,49,-99.99,,,-99.99,,2013-03-05 22:21:00,
2013-03-05 15:32:00,24.0,7.0,-100.00,SSW,205,2.0,9.0,48,-99.99,,,-99.99,,2013-03-05 22:32:00,
2013-03-05 15:41:00,24.0,7.0,-100.00,SSW,205,2.0,9.0,48,-99.99,,,-99.99,,2013-03-05 22:41:00,
2013-03-05 15:52:00,24.0,8.0,-100.00,SW,236,4.0,12.0,49,-99.99,,,-99.99,,2013-03-05 22:52:00,
2013-03-05 16:01:00,24.0,7.0,-100.00,SW,222,4.0,11.0,48,-99.99,,,-99.99,,2013-03-05 23:01:00,
2013-03-05 16:11:00,24.0,7.0,-100.00,SW,222,4.0,11.0,48,-99.99,,,-99.99,,2013-03-05 23:11:00,
2013-03-05 16:21:00,25.0,8.0,-100.00,SSW,198,4.0,18.0,47,-99.99,,,-99.99,,2013-03-05 23:21:00,
2013-03-05 16:32:00,25.0,8.0,-100.00,WSW,242,7.0,16.0,48,-99.99,,,-99.99,,2013-03-05 23:32:00,
2013-03-05 16:41:00,25.0,8.0,-100.00,WSW,242,7.0,16.0,48,-99.99,,,-99.99,,2013-03-05 23:41:00,
2013-03-05 16:52:00,25.0,8.0,-100.00,West,262,8.0,18.0,48,-99.99,,,-99.99,,2013-03-05 23:52:00,
2013-03-05 17:01:00,25.0,8.0,-100.00,WSW,248,8.0,23.0,48,-99.99,,,-99.99,,2013-03-06 00:01:00,
2013-03-05 17:11:00,25.0,8.0,-100.00,WSW,248,8.0,23.0,48,-99.99,,,-99.99,,2013-03-06 00:11:00,
2013-03-05 17:21:00,24.0,7.0,-100.00,SW,221,4.0,11.0,48,-99.99,,,-99.99,,2013-03-06 00:21:00,
2013-03-05 17:32:00,24.0,9.0,-100.00,SW,215,4.0,10.0,52,-99.99,,,-99.99,,2013-03-06 00:32:00,
2013-03-05 17:41:00,24.0,9.0,-100.00,SW,215,4.0,10.0,52,-99.99,,,-99.99,,2013-03-06 00:41:00,
2013-03-05 17:52:00,24.0,8.0,-100.00,SSW,207,6.0,13.0,50,-99.99,,,-99.99,,2013-03-06 00:52:00,
2013-03-05 18:01:00,24.0,7.0,-100.00,SSW,198,7.0,13.0,47,-99.99,,,-99.99,,2013-03-06 01:01:00,
2013-03-05 18:11:00,24.0,7.0,-100.00,SSW,198,7.0,13.0,47,-99.99,,,-99.99,,2013-03-06 01:11:00,
2013-03-05 18:21:00,23.0,6.0,-100.00,SSW,193,13.0,22.0,47,-99.99,,,-99.99,,2013-03-06 01:21:00,
2013-03-05 18:31:00,23.0,6.0,-100.00,SSW,193,13.0,22.0,47,-99.99,,,-99.99,,2013-03-06 01:31:00,
2013-03-05 18:41:00,23.0,6.0,-100.00,SSW,193,13.0,22.0,47,-99.99,,,-99.99,,2013-03-06 01:41:00,
2013-03-05 18:52:00,23.0,6.0,-100.00,SSW,194,16.0,27.0,47,-99.99,,,-99.99,,2013-03-06 01:52:00,
2013-03-05 19:01:00,22.0,6.0,-100.00,South,188,16.0,27.0,50,-99.99,,,-99.99,,2013-03-06 02:01:00,
2013-03-05 19:11:00,22.0,6.0,-100.00,South,188,16.0,27.0,50,-99.99,,,-99.99,,2013-03-06 02:11:00,
2013-03-05 19:21:00,22.0,6.0,-100.00,South,190,14.0,23.0,50,-99.99,,,-99.99,,2013-03-06 02:21:00,
2013-03-05 19:31:00,21.0,6.0,-100.00,South,190,8.0,16.0,52,-99.99,,,-99.99,,2013-03-06 02:31:00,
2013-03-05 19:41:00,21.0,6.0,-100.00,South,190,8.0,16.0,52,-99.99,,,-99.99,,2013-03-06 02:41:00,
2013-03-05 19:52:00,21.0,6.0,-100.00,SSW,204,12.0,18.0,51,-99.99,,,-99.99,,2013-03-06 02:52:00,
2013-03-05 20:01:00,21.0,6.0,-100.00,South,190,13.0,20.0,51,-99.99,,,-99.99,,2013-03-06 03:01:00,
2013-03-05 20:11:00,21.0,6.0,-100.00,South,190,13.0,20.0,51,-99.99,,,-99.99,,2013-03-06 03:11:00,
2013-03-05 20:21:00,21.0,6.0,-100.00,South,190,9.0,19.0,51,-99.99,,,-99.99,,2013-03-06 03:21:00,
2013-03-05 20:31:00,21.0,6.0,-100.00,SSW,202,11.0,23.0,51,-99.99,,,-99.99,,2013-03-06 03:31:00,
2013-03-05 20:41:00,21.0,6.0,-100.00,SSW,202,11.0,23.0,51,-99.99,,,-99.99,,2013-03-06 03:41:00,
2013-03-05 20:52:00,21.0,5.0,-100.00,South,190,12.0,19.0,49,-99.99,,,-99.99,,2013-03-06 03:52:00,
2013-03-05 21:01:00,21.0,4.0,-100.00,SSW,206,10.0,18.0,48,-99.99,,,-99.99,,2013-03-06 04:01:00,
2013-03-05 21:11:00,21.0,4.0,-100.00,SSW,206,10.0,18.0,48,-99.99,,,-99.99,,2013-03-06 04:11:00,
2013-03-05 21:21:00,21.0,4.0,-100.00,South,190,10.0,19.0,48,-99.99,,,-99.99,,2013-03-06 04:21:00,
2013-03-05 21:32:00,21.0,4.0,-100.00,SSW,200,9.0,18.0,48,-99.99,,,-99.99,,2013-03-06 04:32:00,
2013-03-05 21:41:00,21.0,4.0,-100.00,SSW,200,9.0,18.0,48,-99.99,,,-99.99,,2013-03-06 04:41:00,
2013-03-05 21:52:00,21.0,3.0,-100.00,SSW,208,8.0,16.0,45,-99.99,,,-99.99,,2013-03-06 04:52:00,
2013-03-05 22:01:00,21.0,2.0,-100.00,SSW,199,9.0,24.0,43,-99.99,,,-99.99,,2013-03-06 05:01:00,
2013-03-05 22:11:00,21.0,2.0,-100.00,SSW,199,9.0,24.0,43,-99.99,,,-99.99,,2013-03-06 05:11:00,
2013-03-05 22:22:00,21.0,2.0,-100.00,SSW,201,7.0,18.0,43,-99.99,,,-99.99,,2013-03-06 05:22:00,
2013-03-05 22:32:00,21.0,2.0,-100.00,SSW,194,9.0,19.0,43,-99.99,,,-99.99,,2013-03-06 05:32:00,
2013-03-05 22:42:00,21.0,2.0,-100.00,SSW,194,9.0,19.0,43,-99.99,,,-99.99,,2013-03-06 05:42:00,
2013-03-05 22:52:00,21.0,3.0,-100.00,SSW,193,10.0,19.0,44,-99.99,,,-99.99,,2013-03-06 05:52:00,
2013-03-05 23:01:00,21.0,3.0,-100.00,SSW,200,11.0,19.0,44,-99.99,,,-99.99,,2013-03-06 06:01:00,
2013-03-05 23:11:00,21.0,3.0,-100.00,SSW,200,11.0,19.0,44,-99.99,,,-99.99,,2013-03-06 06:11:00,
2013-03-05 23:22:00,21.0,3.0,-100.00,SSW,193,14.0,24.0,45,-99.99,,,-99.99,,2013-03-06 06:22:00,
2013-03-05 23:31:00,21.0,4.0,-100.00,SSW,201,11.0,17.0,47,-99.99,,,-99.99,,2013-03-06 06:31:00,
2013-03-05 23:41:00,21.0,4.0,-100.00,SSW,201,11.0,17.0,47,-99.99,,,-99.99,,2013-03-06 06:41:00,
2013-03-05 23:52:00,21.0,4.0,-100.00,SSW,201,12.0,22.0,46,-99.99,,,-99.99,,2013-03-06 06:52:00,